Temp
-13 -13 -13 -13 -12 -12 -11 -10 -11 -9 -10 -9 -10 -11 -11 -12 -11 -10 -10 -11 -11 -11 -11 -10 -10 -11 -11 -11 -11 -11 -11 -11 -11 -11 -12 -13 -13 -14 -14 -14 -15 -16 -18 -19
-14 -14 -13 -14 -13 -13 -11 -10 -10 -10 -9 -10 -11 -11 -12 -12 -10 -10 -10 -10 -11 -11 -11 -11 -11 -11 -11 -12 -12 -11 -12 -12 -12 -12 -12 -13 -13 -14 -14 -14 -15 -17 -18 -19
-15 -14 -14 -15 -12 -11 -12 -11 -10 -10 -9 -11 -11 -12 -13 -12 -12 -11 -11 -11 -11 -11 -11 -11 -11 -11 -12 -12 -12 -12 -12 -12 -12 -12 -13 -13 -14 -14 -14 -15 -15 -17 -18 -19
-15 -15 -15 -13 -12 -12 -13 -12 -11 -11 -10 -11 -12 -12 -12 -11 -11 -12 -12 -12 -12 -12 -11 -11 -11 -12 -12 -12 -12 -12 -12 -12 -12 -13 -13 -14 -14 -14 -14 -15 -16 -18 -18 -19
-15 -16 -15 -15 -13 -13 -12 -12 -12 -11 -11 -12 -12 -13 -12 -11 -12 -12 -12 -12 -12 -12 -12 -11 -12 -12 -13 -12 -12 -12 -12 -12 -13 -13 -14 -14 -14 -14 -15 -15 -16 -18 -19 -19
-17 -15 -15 -14 -13 -14 -14 -13 -12 -12 -12 -13 -14 -13 -11 -13 -13 -13 -13 -13 -12 -12 -12 -12 -12 -13 -13 -12 -12 -12 -13 -13 -13 -14 -14 -14 -14 -14 -15 -15 -16 -18 -19 -19
-17 -16 -16 -16 -15 -15 -15 -13 -14 -14 -14 -14 -14 -13 -13 -14 -13 -13 -13 -13 -12 -12 -12 -12 -12 -13 -13 -12 -12 -13 -13 -13 -13 -14 -14 -14 -14 -15 -15 -16 -16 -18 -19 -19
-20 -18 -18 -15 -16 -16 -15 -15 -15 -15 -15 -14 -13 -13 -13 -14 -14 -14 -13 -13 -13 -13 -12 -12 -12 -13 -12 -12 -13 -13 -13 -13 -14 -14 -14 -15 -15 -15 -15 -16 -17 -19 -19 -20
-22 -19 -18 -18 -16 -16 -16 -15 -15 -15 -15 -15 -14 -14 -14 -14 -14 -13 -13 -13 -13 -13 -13 -13 -13 -13 -13 -13 -13 -14 -14 -14 -14 -14 -15 -14 -15 -15 -16 -16 -17 -19 -19 -20
-22 -19 -19 -19 -18 -17 -16 -16 -15 -15 -15 -15 -15 -14 -14 -14 -13 -13 -13 -13 -13 -13 -13 -13 -13 -13 -13 -13 -13 -14 -14 -14 -14 -15 -14 -15 -15 -15 -16 -16 -18 -19 -19 -20
-22 -19 -21 -20 -18 -17 -16 -16 -16 -16 -15 -15 -15 -14 -14 -13 -13 -13 -13 -13 -13 -13 -13 -13 -13 -13 -13 -14 -14 -14 -14 -14 -15 -15 -15 -15 -15 -16 -16 -17 -19 -19 -19 -20
-22 -21 -22 -20 -20 -18 -17 -17 -16 -16 -15 -15 -15 -15 -15 -14 -14 -14 -14 -13 -14 -13 -13 -13 -13 -13 -13 -14 -14 -14 -14 -15 -15 -15 -15 -15 -16 -16 -16 -18 -19 -19 -20 -21
-22 -22 -21 -21 -21 -20 -18 -18 -17 -16 -16 -16 -16 -16 -15 -15 -14 -14 -14 -14 -14 -14 -14 -14 -14 -13 -14 -14 -15 -14 -15 -15 -15 -15 -15 -15 -16 -16 -16 -19 -20 -20 -21 -21
-24 -23 -22 -21 -22 -22 -19 -19 -17 -17 -17 -17 -17 -16 -15 -15 -14 -14 -14 -14 -14 -14 -14 -14 -14 -14 -14 -14 -15 -15 -15 -15 -15 -15 -15 -16 -16 -16 -17 -19 -20 -21 -22 -22
-24 -25 -23 -21 -21 -22 -20 -19 -18 -17 -16 -16 -16 -16 -15 -15 -14 -14 -14 -14 -14 -14 -14 -14 -14 -14 -14 -15 -15 -15 -15 -15 -15 -15 -16 -16 -16 -17 -19 -20 -20 -20 -22 -23
-23 -23 -22 -21 -21 -22 -19 -19 -17 -17 -16 -16 -15 -15 -15 -15 -15 -14 -14 -14 -14 -14 -14 -14 -14 -14 -15 -15 -15 -15 -16 -15 -15 -16 -16 -16 -16 -18 -20 -20 -20 -21 -22 -22
-24 -23 -22 -21 -21 -20 -19 -19 -18 -17 -16 -16 -15 -15 -15 -15 -14 -14 -15 -14 -14 -14 -14 -14 -14 -15 -15 -15 -15 -16 -16 -16 -16 -16 -16 -16 -17 -19 -20 -20 -20 -21 -22 -22
-24 -23 -22 -21 -21 -21 -21 -19 -19 -17 -16 -16 -15 -15 -15 -15 -15 -15 -14 -14 -14 -14 -14 -15 -14 -15 -15 -15 -16 -16 -16 -16 -16 -16 -16 -16 -18 -20 -20 -20 -21 -22 -22 -22
-26 -23 -22 -22 -22 -21 -21 -19 -19 -18 -16 -15 -15 -15 -15 -15 -15 -15 -15 -15 -15 -14 -15 -15 -15 -15 -16 -16 -16 -16 -16 -16 -16 -16 -16 -17 -19 -20 -20 -21 -21 -22 -22 -23
-25 -24 -23 -22 -22 -21 -20 -18 -18 -18 -17 -16 -16 -16 -15 -15 -14 -15 -15 -15 -15 -15 -15 -15 -15 -16 -16 -16 -16 -16 -16 -16 -16 -16 -16 -18 -19 -20 -21 -21 -22 -22 -23 -23
-25 -24 -23 -22 -22 -21 -19 -18 -18 -18 -18 -18 -16 -16 -16 -15 -15 -15 -15 -16 -16 -16 -15 -16 -16 -16 -16 -16 -16 -16 -16 -16 -16 -16 -17 -19 -20 -20 -20 -21 -22 -23 -24 -24
-24 -24 -23 -22 -21 -21 -19 -19 -18 -17 -17 -17 -17 -16 -15 -16 -16 -16 -16 -16 -16 -16 -16 -16 -17 -17 -16 -16 -16 -17 -16 -16 -16 -16 -18 -19 -19 -20 -20 -21 -23 -24 -24 -24
-24 -23 -23 -22 -21 -20 -20 -19 -18 -18 -17 -17 -17 -16 -16 -16 -16 -16 -16 -16 -16 -16 -16 -17 -17 -17 -17 -17 -17 -17 -16 -16 -17 -17 -19 -19 -19 -20 -20 -21 -23 -24 -24 -25
-23 -22 -22 -21 -20 -20 -19 -19 -18 -18 -18 -17 -17 -17 -17 -16 -16 -17 -16 -16 -16 -17 -17 -18 -17 -17 -17 -17 -17 -16 -16 -16 -17 -18 -20 -19 -20 -20 -20 -22 -23 -24 -25 -26
-22 -22 -21 -21 -20 -20 -20 -19 -19 -18 -18 -18 -17 -17 -17 -17 -17 -17 -17 -17 -17 -18 -18 -18 -17 -17 -17 -17 -17 -16 -16 -17 -18 -20 -20 -20 -20 -20 -21 -22 -23 -24 -25 -26
-22 -22 -21 -21 -20 -20 -19 -19 -19 -18 -18 -18 -18 -18 -17 -17 -17 -17 -17 -17 -18 -18 -18 -18 -18 -17 -17 -17 -17 -16 -17 -18 -19 -20 -20 -20 -20 -20 -21 -22 -23 -24 -25 -27
-22 -22 -22 -21 -20 -19 -19 -19 -19 -18 -18 -18 -18 -18 -18 -18 -18 -18 -18 -18 -19 -19 -18 -18 -18 -18 -18 -17 -17 -17 -18 -18 -19 -20 -20 -21 -20 -20 -21 -22 -22 -24 -25 -26
Height
5701 5707 5710 5709 5709 5715 5715 5721 5717 5731 5727 5738 5740 5739 5739 5736 5734 5733 5739 5740 5736 5734 5732 5729 5726 5722 5718 5715 5710 5705 5701 5695 5688 5681 5672 5663 5653 5642 5631 5617 5603 5587 5576 5563
5674 5686 5690 5688 5693 5696 5696 5706 5707 5713 5714 5731 5730 5724 5729 5722 5720 5723 5726 5728 5726 5724 5721 5718 5715 5711 5707 5703 5699 5695 5689 5683 5677 5669 5661 5652 5643 5632 5620 5606 5592 5577 5565 5554
5649 5669 5672 5661 5677 5683 5685 5683 5694 5697 5711 5717 5715 5711 5712 5713 5712 5711 5710 5711 5713 5712 5710 5707 5703 5700 5696 5693 5689 5684 5678 5672 5666 5659 5651 5642 5632 5622 5609 5595 5581 5567 5556 5544
5632 5640 5626 5646 5671 5671 5666 5676 5680 5684 5695 5699 5698 5698 5700 5698 5701 5705 5702 5701 5700 5700 5698 5695 5692 5688 5685 5682 5678 5673 5667 5661 5655 5648 5640 5631 5621 5611 5598 5583 5569 5557 5546 5535
5617 5622 5621 5629 5648 5658 5658 5661 5671 5673 5680 5683 5684 5682 5687 5684 5691 5689 5691 5691 5690 5689 5687 5685 5681 5677 5674 5671 5666 5661 5655 5650 5644 5637 5629 5620 5610 5600 5587 5573 5558 5546 5536 5528
5613 5603 5605 5622 5639 5644 5640 5636 5656 5661 5666 5667 5664 5665 5676 5675 5676 5677 5677 5678 5678 5677 5676 5674 5669 5666 5663 5660 5655 5650 5645 5639 5632 5626 5618 5609 5599 5590 5577 5563 5548 5537 5527 5516
5589 5582 5583 5605 5613 5621 5618 5639 5639 5644 5647 5647 5648 5655 5659 5660 5662 5664 5665 5665 5665 5664 5664 5662 5659 5655 5653 5648 5643 5639 5634 5628 5622 5615 5607 5598 5589 5578 5566 5553 5540 5527 5517 5506
5570 5570 5576 5595 5592 5596 5594 5604 5615 5620 5625 5632 5638 5642 5644 5647 5648 5650 5651 5652 5653 5653 5652 5650 5648 5645 5642 5638 5633 5628 5623 5617 5611 5604 5596 5588 5578 5566 5554 5541 5529 5517 5506 5495
5552 5554 5566 5575 5580 5586 5587 5591 5597 5603 5614 5620 5624 5626 5629 5632 5634 5636 5639 5640 5641 5640 5640 5639 5636 5634 5631 5626 5622 5617 5612 5606 5599 5593 5585 5576 5566 5555 5543 5529 5519 5507 5496 5485
5536 5555 5553 5554 5559 5562 5565 5574 5582 5590 5599 5604 5608 5611 5616 5619 5620 5623 5627 5628 5629 5629 5628 5627 5625 5622 5619 5614 5610 5605 5600 5594 5589 5582 5573 5564 5554 5543 5531 5518 5507 5497 5486 5475
5525 5537 5532 5533 5535 5542 5551 5560 5568 5576 5582 5587 5593 5596 5600 5605 5608 5612 5614 5615 5616 5617 5616 5615 5612 5611 5607 5602 5598 5594 5589 5584 5578 5570 5562 5553 5543 5532 5519 5506 5494 5486 5475 5464
5515 5519 5515 5523 5526 5531 5537 5545 5551 5560 5565 5569 5576 5581 5586 5591 5596 5599 5601 5603 5605 5605 5604 5603 5601 5598 5594 5591 5588 5584 5579 5573 5567 5560 5551 5542 5533 5522 5508 5494 5484 5474 5462 5453
5502 5501 5505 5513 5516 5517 5522 5528 5537 5543 5550 5557 5563 5567 5572 5578 5582 5585 5588 5591 5593 5593 5593 5591 5589 5585 5583 5580 5578 5574 5569 5563 5556 5548 5540 5532 5522 5510 5500 5487 5475 5467 5455 5445
5483 5481 5487 5497 5498 5503 5509 5517 5523 5532 5538 5543 5548 5552 5557 5564 5569 5572 5576 5579 5581 5581 5580 5579 5577 5574 5572 5570 5567 5563 5558 5552 5546 5538 5531 5522 5512 5500 5488 5479 5470 5458 5446 5438
5471 5466 5472 5480 5487 5490 5497 5505 5512 5520 5525 5531 5536 5542 5546 5551 5556 5560 5564 5567 5568 5568 5568 5567 5566 5564 5562 5560 5556 5552 5547 5540 5534 5527 5520 5510 5499 5487 5477 5469 5459 5451 5441 5432
5461 5465 5470 5472 5478 5483 5489 5496 5501 5508 5514 5523 5528 5531 5536 5541 5544 5548 5552 5554 5555 5556 5556 5556 5555 5554 5552 5549 5546 5542 5536 5530 5524 5518 5509 5499 5488 5476 5468 5459 5450 5442 5434 5427
5452 5455 5459 5463 5466 5473 5479 5486 5491 5498 5505 5513 5517 5520 5526 5529 5533 5536 5538 5541 5543 5544 5545 5545 5545 5544 5542 5540 5536 5531 5526 5520 5515 5507 5499 5488 5476 5465 5459 5448 5440 5432 5426 5419
5437 5439 5442 5449 5451 5457 5465 5472 5481 5488 5496 5501 5506 5509 5515 5518 5521 5525 5528 5531 5533 5534 5534 5535 5534 5534 5533 5531 5527 5522 5516 5511 5505 5497 5488 5477 5465 5457 5447 5438 5430 5424 5418 5411
5428 5427 5431 5435 5438 5444 5453 5462 5473 5477 5486 5493 5497 5500 5504 5509 5512 5515 5518 5520 5523 5523 5525 5524 5524 5524 5523 5521 5517 5512 5507 5503 5495 5487 5478 5465 5456 5447 5436 5428 5421 5415 5409 5400
5419 5419 5422 5425 5428 5433 5440 5453 5461 5467 5475 5480 5487 5492 5495 5498 5503 5506 5508 5510 5512 5514 5515 5515 5514 5514 5513 5512 5508 5503 5499 5493 5486 5477 5466 5455 5447 5437 5428 5420 5412 5406 5399 5389
5411 5412 5414 5416 5419 5424 5431 5441 5450 5457 5464 5470 5475 5483 5490 5491 5493 5495 5498 5500 5502 5505 5505 5506 5505 5505 5504 5502 5499 5495 5489 5482 5475 5467 5456 5446 5437 5429 5421 5413 5405 5398 5389 5380
5406 5405 5408 5410 5413 5419 5425 5433 5440 5449 5454 5461 5466 5475 5480 5482 5485 5486 5489 5491 5493 5495 5496 5496 5496 5496 5495 5493 5489 5485 5479 5472 5465 5456 5447 5437 5429 5423 5414 5407 5399 5390 5381 5373
5400 5401 5403 5404 5407 5413 5419 5427 5433 5440 5447 5453 5458 5464 5469 5474 5477 5479 5480 5482 5484 5485 5486 5488 5489 5488 5486 5484 5479 5475 5469 5463 5456 5446 5438 5429 5422 5416 5409 5402 5393 5384 5375 5366
5395 5397 5398 5400 5403 5409 5414 5419 5424 5431 5438 5444 5449 5454 5458 5462 5468 5470 5472 5473 5475 5477 5479 5480 5481 5480 5478 5474 5471 5466 5460 5453 5446 5437 5429 5424 5418 5411 5405 5397 5388 5380 5370 5361
5391 5393 5393 5395 5398 5404 5408 5412 5417 5424 5430 5435 5438 5443 5448 5455 5460 5461 5463 5466 5469 5470 5472 5473 5473 5471 5468 5465 5461 5456 5451 5444 5436 5429 5423 5419 5414 5407 5401 5394 5385 5377 5368 5359
5389 5391 5390 5392 5395 5399 5402 5408 5413 5417 5422 5426 5432 5435 5442 5447 5450 5453 5456 5461 5461 5464 5466 5466 5464 5461 5460 5456 5452 5448 5442 5434 5428 5422 5418 5414 5410 5404 5398 5391 5384 5376 5367 5359
5387 5386 5387 5387 5389 5392 5396 5402 5407 5411 5415 5421 5425 5429 5435 5439 5444 5448 5450 5453 5455 5458 5459 5458 5457 5455 5451 5448 5445 5438 5431 5425 5419 5417 5414 5410 5406 5401 5396 5389 5383 5376 5369 5361
Wind_Speed
71 67 63 63 65 62 66 64 65 56 57 47 43 42 39 44 49 50 41 37 40 41 42 44 46 48 48 47 47 48 51 50 54 57 59 60 62 66 71 77 82 74 65 67
79 72 67 67 66 66 69 65 64 59 57 43 38 43 35 47 50 47 43 37 41 41 43 45 46 49 49 48 47 48 50 51 55 59 57 60 62 65 71 76 83 67 63 66
84 77 75 75 74 70 68 70 64 60 48 38 39 41 37 42 46 46 45 44 42 42 44 46 48 50 49 47 48 49 49 52 55 59 57 60 62 65 72 77 81 64 62 63
70 77 86 82 73 70 70 66 63 59 49 41 40 43 42 49 47 42 45 44 44 44 45 47 49 50 50 49 48 49 50 53 56 56 56 58 61 65 72 78 78 63 59 62
67 54 72 79 70 71 73 70 61 58 51 46 42 44 45 49 38 45 43 42 44 45 47 47 49 49 47 45 46 49 50 54 55 54 55 57 62 66 72 78 75 60 58 62
61 72 66 58 60 60 70 74 62 56 51 44 36 40 37 32 40 42 43 43 45 47 47 48 50 50 48 48 51 49 51 53 53 54 54 57 62 68 72 78 75 58 57 61
61 49 47 53 41 51 65 63 60 53 46 45 45 42 41 41 44 42 44 46 47 48 48 49 50 50 47 49 49 47 51 51 53 52 54 57 63 68 72 78 73 57 58 60
66 52 32 30 47 55 62 57 42 39 38 42 40 39 41 42 45 46 45 45 47 47 49 50 51 47 46 48 46 47 49 51 52 52 55 58 64 70 74 77 69 56 59 57
48 59 26 29 40 47 68 52 54 55 51 46 45 46 49 49 50 48 46 46 47 48 50 49 48 46 45 48 47 47 48 51 50 53 55 59 65 71 76 78 66 54 58 56
55 51 39 31 40 46 59 58 60 55 53 50 47 47 47 49 51 51 47 48 49 48 46 45 47 45 47 47 46 46 48 50 52 53 55 60 66 72 75 79 61 55 58 56
51 50 54 48 41 51 54 54 59 64 55 50 48 44 44 46 48 47 47 45 43 44 44 44 45 44 46 42 42 44 47 50 51 53 56 61 67 72 77 71 57 55 57 56
48 45 46 55 54 46 53 51 51 41 50 48 48 46 46 46 45 46 47 44 41 43 41 43 43 43 41 40 43 44 48 50 50 54 57 63 67 71 77 61 56 58 54 54
46 46 47 49 51 48 47 43 49 53 51 50 52 54 53 51 49 46 44 40 42 42 39 43 42 41 40 41 42 46 47 47 49 53 58 64 68 71 72 53 55 53 50 51
40 42 42 42 47 48 45 38 53 55 48 47 46 45 45 46 45 44 40 40 40 41 42 42 41 40 41 41 43 44 46 46 50 54 59 64 69 73 64 50 51 47 46 49
36 41 42 42 39 43 46 36 40 42 32 37 43 45 45 45 46 42 42 40 42 44 45 42 40 40 41 41 41 42 43 45 49 55 61 65 70 70 53 50 50 46 42 45
35 38 38 41 36 39 47 38 39 38 40 42 39 36 43 45 45 46 43 45 43 41 41 36 38 40 41 40 39 41 41 45 49 56 61 66 71 55 49 50 50 44 40 40
33 36 37 38 38 36 41 46 39 40 39 39 37 36 36 36 36 34 34 35 37 37 34 36 38 39 40 37 38 39 40 45 51 57 62 68 62 48 48 48 48 41 38 39
32 33 34 35 36 40 34 39 39 36 34 35 34 27 21 21 21 23 24 27 31 32 32 36 38 39 36 35 37 38 40 45 52 58 64 69 51 46 47 50 45 37 36 39
34 33 30 35 40 38 35 38 42 35 34 39 32 26 20 22 25 26 27 26 29 33 34 37 38 36 33 34 36 37 40 46 53 58 66 57 48 47 47 49 41 36 38 40
42 38 30 30 32 43 38 36 37 35 42 40 28 23 26 25 29 34 34 33 32 34 35 37 35 32 30 33 34 36 40 47 53 59 64 50 44 46 44 48 42 37 42 37
46 39 35 33 30 44 36 32 37 39 36 33 40 37 32 33 30 30 32 32 33 33 35 35 30 27 29 31 32 36 41 48 55 60 54 42 45 44 43 47 41 39 41 34
38 40 36 30 38 44 34 32 36 41 39 37 28 25 30 34 30 28 29 30 32 34 33 29 25 25 27 28 31 36 43 49 56 56 46 39 43 42 45 45 40 40 43 32
30 31 33 27 31 42 35 35 40 43 41 42 36 35 33 36 35 31 30 31 33 33 28 22 22 24 24 27 32 37 44 49 55 52 39 39 38 39 43 42 40 40 43 31
22 21 24 20 30 34 28 28 37 38 34 40 40 37 37 40 39 32 31 33 32 27 19 18 21 21 24 28 34 41 44 50 54 43 34 38 35 38 40 40 40 39 40 30
19 8 12 16 22 26 27 28 32 38 34 35 31 31 32 36 32 31 31 30 26 17 15 18 18 20 25 32 36 41 46 50 46 35 33 34 33 36 37 37 37 36 37 29
19 10 4 13 25 23 22 23 27 29 31 24 27 25 29 31 32 32 29 25 16 13 16 16 17 21 28 33 38 43 47 48 40 32 31 30 31 33 35 35 34 32 33 26
13 6 5 4 14 21 25 28 33 34 31 30 29 30 33 31 31 27 21 15 12 14 14 15 19 24 30 35 40 43 47 46 34 29 27 27 28 31 32 32 32 28 29 25
Wind_Direction
253 251 252 257 260 258 258 261 261 268 267 267 266 270 272 274 274 277 279 277 278 282 286 291 297 298 301 304 306 306 310 309 312 315 317 318 320 321 325 330 333 333 331 332
252 248 247 248 251 257 259 262 263 264 265 273 275 272 268 271 273 275 277 274 275 280 286 293 295 298 301 304 306 307 309 308 313 315 317 319 320 323 326 332 334 331 329 331
254 255 252 247 246 251 255 259 262 265 270 272 259 262 261 258 265 273 280 279 279 282 288 291 295 298 300 304 304 306 307 309 313 315 317 319 319 323 328 332 336 331 330 332
243 248 245 253 252 252 255 257 261 266 268 271 266 259 255 261 263 268 267 271 276 283 288 291 295 296 300 304 304 306 306 309 313 315 318 317 321 324 329 333 337 330 330 332
253 245 251 250 251 254 259 261 262 264 265 266 268 260 259 262 267 264 264 268 275 281 285 290 291 294 301 305 306 306 306 309 313 316 316 318 322 326 330 334 338 327 327 330
263 255 252 251 254 252 255 260 262 265 263 262 257 254 260 260 255 259 265 269 275 280 285 287 289 294 299 302 303 304 305 309 314 316 317 319 324 328 330 333 338 325 327 328
245 248 252 245 237 246 252 258 261 260 260 255 251 254 252 252 255 257 263 269 274 278 283 285 290 295 300 302 301 302 305 310 314 316 318 320 325 328 329 332 336 323 326 325
252 243 249 226 231 236 243 245 245 240 236 249 252 247 245 246 249 254 261 266 271 277 281 285 290 294 299 300 301 303 306 312 314 316 318 321 325 328 330 332 333 323 325 324
270 251 247 245 235 236 249 240 243 243 246 247 247 248 243 246 250 253 258 265 271 277 281 284 288 295 300 300 301 305 309 313 315 315 318 321 325 329 331 333 330 322 325 324
271 248 257 249 256 241 239 239 245 251 252 248 247 248 248 248 250 255 259 265 270 272 277 283 290 294 296 301 299 305 310 313 314 315 319 322 325 328 332 333 327 325 325 326
271 254 258 248 226 225 233 240 242 244 246 246 246 245 248 250 252 257 262 265 268 270 277 286 290 294 300 299 303 307 311 310 312 316 320 324 327 331 333 331 324 324 327 327
268 260 267 249 250 234 229 231 228 233 241 224 241 246 251 254 257 259 265 263 262 271 281 287 293 297 296 297 302 308 309 309 314 319 324 326 327 332 334 327 324 325 327 329
261 260 263 259 257 254 241 234 232 235 229 242 250 252 253 256 260 261 262 257 264 272 283 285 296 298 292 298 304 307 306 311 316 322 325 326 329 331 332 324 325 326 327 330
253 259 252 254 261 262 249 243 238 238 240 239 241 244 246 249 252 253 251 261 267 276 282 284 290 290 293 298 304 304 308 313 320 324 325 327 330 331 328 321 328 326 327 331
246 250 251 245 252 259 252 239 234 229 239 238 240 244 244 241 244 249 254 262 268 276 278 284 286 286 292 299 301 304 309 315 322 324 326 329 330 330 322 323 330 327 327 330
242 249 253 258 251 257 253 242 236 228 232 240 250 245 244 245 249 254 257 262 269 271 275 280 280 287 294 297 299 306 311 318 322 324 328 329 330 326 321 325 330 326 327 328
244 242 247 255 257 250 263 249 236 226 227 237 241 248 245 247 250 252 255 262 266 267 269 273 278 287 292 295 301 306 313 321 322 325 328 329 328 323 322 328 328 326 326 325
250 243 236 241 245 239 232 240 242 226 227 224 226 223 233 241 245 250 261 264 265 266 269 272 280 287 290 296 302 307 316 320 323 325 327 330 326 322 328 330 327 326 326 324
264 243 240 238 237 228 215 234 243 222 224 227 226 221 225 245 257 258 264 272 274 272 270 275 281 285 290 298 303 310 318 321 326 327 329 332 325 328 332 333 330 326 326 322
263 254 246 240 234 219 208 222 232 230 220 223 236 250 244 238 253 254 255 264 265 265 270 275 280 285 293 299 304 313 319 326 326 327 333 330 328 333 332 338 333 328 328 322
268 257 241 233 242 215 197 207 223 227 215 217 235 249 263 253 244 245 250 254 260 264 268 272 278 286 294 299 308 317 324 325 327 332 333 326 335 334 336 338 333 334 335 327
265 258 240 245 225 224 206 215 210 221 217 220 216 232 248 242 249 250 251 254 260 263 267 271 278 288 294 303 314 321 324 324 327 335 327 333 336 333 338 337 336 338 339 331
272 266 255 256 220 218 212 215 215 213 216 220 219 222 228 242 256 257 255 257 259 262 264 270 281 285 296 309 319 323 325 326 330 335 325 334 334 336 337 338 339 339 340 334
267 264 253 223 214 219 215 215 223 220 218 227 227 225 227 237 245 253 254 254 255 255 257 271 278 289 304 316 319 324 324 328 331 330 328 333 332 338 337 341 342 340 343 339
270 255 223 208 220 231 223 214 221 225 224 229 235 230 234 238 246 247 244 243 244 246 261 272 283 301 314 317 323 324 324 329 334 324 329 330 331 337 337 345 345 344 348 345
245 258 188 207 219 221 223 224 231 236 217 217 225 227 236 241 240 232 233 235 234 249 262 276 299 312 314 321 323 323 326 334 331 323 324 326 331 336 337 347 349 347 353 352
235 334 313 265 223 230 233 226 223 222 218 220 227 231 231 222 219 219 218 220 232 250 264 291 307 314 318 320 319 323 332 334 326 316 321 321 329 334 337 346 352 349 357 360